When you browse on this site, cookies collect data to enhance your experience and personalize the content and advertising you see.
Visit our Privacy Policy to learn more. By continuing to use the site, you agree to this use of cookies and data.
  • In Schweiz
  • Länderverzeichnis
  • Für 7 Tage
  • Wassertemperatur
  • Satellitenkarten
  • Wetterkarte
  • Widgets
  • user-avatar
    Anmelden

    Stündliche Wetter Julara

    Heute, 20 März, Mittwoch

    Zeit Temperatur Niederschläge Wind Luftdruck Luftfeuchtigkeit
    00:00 +29°C° 0 mm 5 m/S 716 mmHg 21%
    01:00 +28°C° 0 mm 5 m/S 716 mmHg 22%
    02:00 +28°C° 0 mm 4 m/S 716 mmHg 23%
    03:00 +27°C° 0 mm 4 m/S 716 mmHg 25%
    04:00 +27°C° 0 mm 4 m/S 716 mmHg 25%
    05:00 +27°C° 0 mm 4 m/S 717 mmHg 26%
    06:00 +26°C° 0 mm 3 m/S 717 mmHg 26%
    07:00 +28°C° 0 mm 4 m/S 717 mmHg 23%
    08:00 +30°C° 0 mm 5 m/S 717 mmHg 20%
    09:00 +33°C° 0 mm 6 m/S 718 mmHg 17%
    10:00 +35°C° 0 mm 6 m/S 718 mmHg 16%
    11:00 +38°C° 0 mm 6 m/S 717 mmHg 14%
    12:00 +40°C° 0 mm 5 m/S 717 mmHg 13%
    13:00 +41°C° 0 mm 5 m/S 717 mmHg 12%
    14:00 +41°C° 0 mm 5 m/S 716 mmHg 11%
    15:00 +42°C° 0 mm 5 m/S 716 mmHg 11%
    16:00 +41°C° 0 mm 5 m/S 716 mmHg 11%
    17:00 +41°C° 0 mm 5 m/S 716 mmHg 12%
    18:00 +40°C° 0 mm 5 m/S 716 mmHg 12%
    19:00 +37°C° 0 mm 5 m/S 716 mmHg 14%
    20:00 +35°C° 0 mm 5 m/S 716 mmHg 16%
    21:00 +33°C° 0 mm 5 m/S 717 mmHg 18%
    22:00 +33°C° 0 mm 5 m/S 717 mmHg 19%
    23:00 +32°C° 0 mm 4 m/S 717 mmHg 21%

    Morgen, 21 März, Donnerstag

    Zeit Temperatur Niederschläge Wind Luftdruck Luftfeuchtigkeit
    00:00 +30°C° 0 mm 4 m/S 717 mmHg 23%
    01:00 +29°C° 0 mm 4 m/S 717 mmHg 24%
    02:00 +28°C° 0 mm 4 m/S 716 mmHg 26%
    03:00 +27°C° 0 mm 4 m/S 716 mmHg 28%
    04:00 +27°C° 0 mm 3 m/S 716 mmHg 29%
    05:00 +26°C° 0 mm 3 m/S 716 mmHg 31%
    06:00 +26°C° 0 mm 3 m/S 716 mmHg 32%
    07:00 +28°C° 0 mm 5 m/S 716 mmHg 28%
    08:00 +32°C° 0 mm 6 m/S 717 mmHg 24%
    09:00 +34°C° 0 mm 7 m/S 717 mmHg 21%
    10:00 +36°C° 0 mm 7 m/S 717 mmHg 18%
    11:00 +39°C° 0 mm 6 m/S 717 mmHg 16%
    12:00 +41°C° 0 mm 5 m/S 716 mmHg 14%
    13:00 +42°C° 0 mm 5 m/S 716 mmHg 13%
    14:00 +42°C° 0 mm 5 m/S 715 mmHg 12%
    15:00 +43°C° 0 mm 5 m/S 714 mmHg 12%
    16:00 +42°C° 0 mm 5 m/S 714 mmHg 12%
    17:00 +41°C° 0 mm 5 m/S 714 mmHg 13%
    18:00 +41°C° 0 mm 4 m/S 714 mmHg 13%
    19:00 +38°C° 0 mm 4 m/S 715 mmHg 15%
    20:00 +36°C° 0 mm 4 m/S 715 mmHg 17%
    21:00 +34°C° 0 mm 5 m/S 716 mmHg 19%
    22:00 +33°C° 0 mm 5 m/S 716 mmHg 20%
    23:00 +32°C° 0 mm 5 m/S 716 mmHg 22%

    übermorgen, 22 März, Freitag

    Zeit Temperatur Niederschläge Wind Luftdruck Luftfeuchtigkeit
    00:00 +32°C° 0 mm 5 m/S 716 mmHg 23%
    01:00 +30°C° 0 mm 4 m/S 716 mmHg 24%
    02:00 +29°C° 0 mm 4 m/S 715 mmHg 25%
    03:00 +28°C° 0 mm 4 m/S 715 mmHg 27%
    04:00 +28°C° 0 mm 4 m/S 715 mmHg 28%
    05:00 +27°C° 0 mm 4 m/S 715 mmHg 29%
    06:00 +26°C° 0 mm 4 m/S 715 mmHg 30%
    07:00 +29°C° 0 mm 4 m/S 716 mmHg 26%
    08:00 +32°C° 0 mm 5 m/S 716 mmHg 23%
    09:00 +35°C° 0 mm 6 m/S 717 mmHg 19%
    10:00 +38°C° 0 mm 6 m/S 716 mmHg 17%
    11:00 +40°C° 0 mm 6 m/S 716 mmHg 15%
    12:00 +42°C° 0 mm 5 m/S 716 mmHg 13%
    13:00 +42°C° 0 mm 5 m/S 715 mmHg 12%
    14:00 +43°C° 0 mm 4 m/S 714 mmHg 11%
    15:00 +43°C° 0 mm 3 m/S 713 mmHg 11%
    16:00 +43°C° 0 mm 3 m/S 713 mmHg 11%
    17:00 +42°C° 0 mm 3 m/S 713 mmHg 12%
    18:00 +40°C° 0 mm 3 m/S 713 mmHg 12%
    19:00 +38°C° 0 mm 3 m/S 713 mmHg 13%
    20:00 +37°C° 0 mm 4 m/S 714 mmHg 15%
    21:00 +35°C° 0 mm 4 m/S 714 mmHg 16%
    22:00 +34°C° 0 mm 4 m/S 714 mmHg 17%
    23:00 +33°C° 0 mm 4 m/S 714 mmHg 18%

    23 März, Samstag

    Zeit Temperatur Niederschläge Wind Luftdruck Luftfeuchtigkeit
    00:00 +32°C° 0 mm 4 m/S 714 mmHg 19%
    01:00 +32°C° 0 mm 4 m/S 713 mmHg 20%
    02:00 +30°C° 0 mm 4 m/S 713 mmHg 21%
    03:00 +29°C° 0 mm 4 m/S 712 mmHg 22%
    04:00 +29°C° 0 mm 4 m/S 713 mmHg 22%
    05:00 +28°C° 0 mm 4 m/S 713 mmHg 23%
    06:00 +28°C° 0 mm 4 m/S 713 mmHg 23%
    07:00 +30°C° 0 mm 4 m/S 714 mmHg 22%
    08:00 +34°C° 0 mm 4 m/S 714 mmHg 21%
    09:00 +36°C° 0 mm 4 m/S 715 mmHg 19%
    10:00 +38°C° 0 mm 4 m/S 714 mmHg 18%
    11:00 +40°C° 0 mm 4 m/S 714 mmHg 16%
    12:00 +42°C° 0 mm 4 m/S 714 mmHg 15%
    13:00 +43°C° 0 mm 4 m/S 713 mmHg 14%
    14:00 +43°C° 0 mm 3 m/S 712 mmHg 13%
    15:00 +44°C° 0 mm 3 m/S 711 mmHg 12%
    16:00 +43°C° 0 mm 3 m/S 712 mmHg 12%
    17:00 +42°C° 0 mm 3 m/S 712 mmHg 12%
    18:00 +42°C° 0 mm 3 m/S 712 mmHg 13%
    19:00 +41°C° 0 mm 4 m/S 712 mmHg 13%
    20:00 +40°C° 0 mm 4 m/S 713 mmHg 14%
    21:00 +37°C° 0 mm 5 m/S 713 mmHg 15%
    22:00 +36°C° 0 mm 5 m/S 713 mmHg 18%
    23:00 +35°C° 0 mm 5 m/S 713 mmHg 20%

    24 März, Sonntag

    Zeit Temperatur Niederschläge Wind Luftdruck Luftfeuchtigkeit
    00:00 +33°C° 0 mm 5 m/S 713 mmHg 23%
    01:00 +33°C° 0 mm 6 m/S 713 mmHg 25%
    02:00 +32°C° 0 mm 6 m/S 713 mmHg 28%
    03:00 +30°C° 0 mm 6 m/S 713 mmHg 30%
    04:00 +29°C° 0 mm 7 m/S 713 mmHg 32%
    05:00 +28°C° 0 mm 7 m/S 713 mmHg 34%
    06:00 +28°C° 0 mm 7 m/S 714 mmHg 37%
    07:00 +28°C° 0 mm 7 m/S 714 mmHg 35%
    08:00 +29°C° 0 mm 7 m/S 715 mmHg 34%
    09:00 +30°C° 0 mm 7 m/S 715 mmHg 33%
    10:00 +33°C° 0 mm 6 m/S 715 mmHg 31%
    11:00 +35°C° 0 mm 6 m/S 714 mmHg 30%
    12:00 +38°C° 0 mm 6 m/S 714 mmHg 28%
    13:00 +39°C° 0 mm 6 m/S 713 mmHg 27%
    14:00 +39°C° 0 mm 6 m/S 713 mmHg 26%
    15:00 +40°C° 0 mm 6 m/S 712 mmHg 25%
    16:00 +39°C° 0.1 mm 6 m/S 712 mmHg 30%
    17:00 +36°C° 0.1 mm 6 m/S 713 mmHg 35%
    18:00 +35°C° 0.1 mm 7 m/S 713 mmHg 39%
    19:00 +33°C° 0 mm 6 m/S 713 mmHg 45%
    20:00 +32°C° 0 mm 6 m/S 714 mmHg 50%
    21:00 +29°C° 0 mm 6 m/S 715 mmHg 55%
    22:00 +29°C° 0 mm 6 m/S 715 mmHg 57%
    23:00 +28°C° 0 mm 5 m/S 715 mmHg 60%

    25 März, Montag

    Zeit Temperatur Niederschläge Wind Luftdruck Luftfeuchtigkeit
    00:00 +28°C° 0 mm 5 m/S 715 mmHg 62%
    01:00 +27°C° 0 mm 5 m/S 714 mmHg 64%
    02:00 +27°C° 0 mm 5 m/S 714 mmHg 66%
    03:00 +27°C° 0 mm 5 m/S 714 mmHg 68%
    04:00 +27°C° 0 mm 6 m/S 715 mmHg 68%
    05:00 +27°C° 0 mm 7 m/S 715 mmHg 69%
    06:00 +27°C° 0 mm 7 m/S 716 mmHg 69%
    07:00 +27°C° 0 mm 8 m/S 716 mmHg 66%
    08:00 +27°C° 0 mm 9 m/S 716 mmHg 62%
    09:00 +28°C° 0 mm 10 m/S 717 mmHg 58%
    10:00 +29°C° 0 mm 10 m/S 717 mmHg 53%
    11:00 +31°C° 0 mm 10 m/S 716 mmHg 48%
    12:00 +33°C° 0 mm 10 m/S 716 mmHg 43%
    13:00 +33°C° 0 mm 10 m/S 716 mmHg 42%
    14:00 +33°C° 0 mm 10 m/S 715 mmHg 42%
    15:00 +34°C° 0 mm 10 m/S 715 mmHg 42%
    16:00 +32°C° 0 mm 10 m/S 715 mmHg 46%
    17:00 +31°C° 0 mm 10 m/S 715 mmHg 50%
    18:00 +29°C° 0 mm 10 m/S 716 mmHg 55%
    19:00 +28°C° 0 mm 9 m/S 716 mmHg 55%
    20:00 +28°C° 0 mm 9 m/S 717 mmHg 54%
    21:00 +27°C° 0 mm 9 m/S 718 mmHg 54%
    22:00 +27°C° 0 mm 9 m/S 718 mmHg 54%
    23:00 +27°C° 0 mm 8 m/S 718 mmHg 53%
    Mehr zeigen